Flag for Israel Weather past 2 weeks in Netanya, Israel

Now
72 °F

Clear.


Feels Like: 74 °F
Forecast: 67 / 78 °F
Wind: 3 mph from North

Location: Dov Airport

Current Time: Jun 2, 2015 at 10:36:46 PM

Latest Report: Jun 2, 2015 at 9:50 PM


Visibility: 10 mi

Pressure: 29.98 "Hg

Humidity: 73%

Dew point: 63 °F

Location of NetanyaLocation

Historic Weather in Netanya — Graph

°F

Netanya temperature yesterday

Maximum temperature yesterday: 75 °F (at 10:50 AM)
Minimum temperature yesterday: 68 °F (at 5:50 AM)
Average temperature yesterday: 73 °F

Past Weeks' High & Low Weather Summary

 TemperatureHumidityPressure
High102 °F (May 27, 3:50 PM)89% (May 28, 6:50 AM)29.98 "Hg (May 28, 6:50 AM)
Low66 °F (May 24, 6:00 AM)14% (May 27, 6:50 PM)29.62 "Hg (May 27, 5:50 PM)
Average76 °F65%29.85 "Hg
* Reported May 18 8:50 PM — Jun 2 8:50 PM, Netanya, Weather by CustomWeather, © 2015

Note: Actual official high and low records may vary slightly from our data, if they occured in-between our weather recording intervals... More about our weather records

Advertising

Netanya weather history for previous 24 hours

 ConditionsComfort  
Time TempWeatherWind HumidityBarometerVisibility
8:50 PM
Tue, Jun 2
73 °FPassing clouds.5 mph69%29.95 "HgN/A
7:50 PM73 °FPassing clouds.5 mph69%29.92 "HgN/A
6:50 PM75 °FPassing clouds.6 mph61%29.92 "HgN/A
5:50 PM75 °FSunny.9 mph61%29.92 "Hg10 mi
4:50 PM77 °FSunny.9 mph61%29.92 "Hg10 mi
3:50 PM77 °FSunny.10 mph61%29.92 "Hg10 mi
2:50 PM77 °FPassing clouds.9 mph57%29.92 "HgN/A
1:50 PM77 °FPassing clouds.10 mph61%29.92 "HgN/A
12:50 PM77 °FScattered clouds.13 mph61%29.92 "HgN/A
11:50 AM77 °FScattered clouds.12 mph57%29.92 "HgN/A
10:50 AM75 °FScattered clouds.9 mph61%29.92 "HgN/A
9:50 AM75 °FScattered clouds.9 mph61%29.89 "HgN/A
8:50 AM73 °FScattered clouds.8 mph65%29.89 "HgN/A
7:50 AM73 °FScattered clouds.6 mph65%29.86 "HgN/A
6:50 AM72 °FPartly sunny.5 mph69%29.86 "HgN/A
5:50 AM72 °FPassing clouds.7 mph69%29.83 "HgN/A
10:50 PM
Mon, Jun 1
72 °FPassing clouds.6 mph73%29.86 "HgN/A
Weather by CustomWeather, © 2015

See weather overviewHow to use our weather pages